Location: Newark
(25.4800°N, 85.7200°E)
Time: 04:04:23
(UTC+00:00)

Vanguard 1 Rocket - Pass Details

Date: 20 August 2019
Orbit: 652 x 4225 km, 34.3° (Epoch: 15 September)

Event Time Altitude Azimuth Distance (km) Brightness Sun altitude
Rises 18:37:06 0° 228° (SW) 3,497 - -52.0°
Reaches altitude 10° 18:40:01 10° 221° (SW) 2,300 - -51.9°
Maximum altitude 18:44:38 42° 150° (SSE) 940 - -51.7°
Drops below altitude 10° 18:48:48 10° 79° (ENE) 2,078 - -51.6°
Sets 18:51:18 0° 72° (ENE) 3,112 - -51.4°
